Wind_Gust
26 27 29 30 26 34 35 38 32 34 35 31 30 17 18 29 20 27 22 24 23 23 21 21 20 19 23 22 21 21 20 21 21 20 21 22 22 22 22 22 23 23 23 26 26 25 23 24 23 22 21 20 19 18 18 19 19 19 19 18 16 15 15 17 19 19 18 19 17 16 15 16 16 17 15 15 14 16 15 16 17 14 15 14 15 16
32 26 29 28 26 33 37 40 37 35 34 32 25 22 21 19 18 27 25 24 24 21 19 19 19 19 25 23 23 21 21 22 21 21 22 21 21 21 21 21 22 23 23 25 24 24 23 25 24 22 21 19 21 19 20 18 18 16 18 18 16 16 15 16 16 18 17 16 17 17 18 18 18 17 16 16 14 14 16 14 13 13 13 13 13 14
25 27 27 28 24 27 27 31 23 32 29 23 23 19 20 20 22 23 34 32 22 19 19 22 20 19 21 22 24 23 22 23 22 21 23 23 22 22 23 22 22 24 24 25 26 25 26 26 26 24 21 21 21 21 20 18 18 17 18 18 16 15 16 16 16 18 17 15 16 16 17 15 15 13 13 15 13 13 16 13 14 13 13 13 15 15
21 24 25 34 30 28 30 31 34 37 31 20 26 23 17 21 22 21 35 33 21 21 21 21 18 19 18 22 23 23 24 22 19 20 21 21 23 22 23 23 24 25 28 30 28 26 25 25 24 22 23 21 21 21 20 19 19 19 17 16 16 16 15 15 16 16 15 14 12 12 13 12 14 17 13 12 11 12 13 14 13 14 12 14 16 16
26 25 32 33 29 30 31 25 31 28 22 27 24 30 32 28 27 25 22 19 18 21 20 24 25 22 22 23 25 23 23 20 22 23 23 24 22 23 22 23 23 24 27 30 28 27 26 25 25 23 22 24 24 22 21 20 21 18 18 17 16 17 16 16 16 16 16 16 16 16 14 13 14 13 14 14 14 12 10 11 13 13 12 13 14 14
32 29 25 30 38 33 26 25 30 24 27 35 28 34 33 25 24 28 20 19 21 23 24 23 23 23 23 23 25 26 28 26 25 26 26 26 25 25 25 25 25 25 25 28 29 29 27 27 24 23 23 23 23 23 22 22 22 17 18 18 17 18 17 17 16 17 18 18 19 19 18 19 16 16 15 14 12 13 12 16 11 12 12 13 12 14
28 25 28 29 35 35 37 26 25 24 22 25 25 43 41 32 26 25 20 20 19 22 23 22 24 15 24 24 23 27 27 27 27 27 27 28 28 27 27 27 27 27 27 25 26 27 27 26 26 24 24 23 22 21 22 22 20 19 18 18 18 20 18 19 17 18 18 18 19 17 18 17 15 15 13 11 10 10 13 12 11 12 9 11 12 12
29 28 29 27 33 39 37 35 33 21 26 22 19 38 39 30 27 24 23 23 28 26 27 27 26 20 24 28 27 26 26 27 27 28 28 30 29 29 27 28 26 29 26 28 27 27 25 26 26 26 26 24 23 22 23 21 21 20 19 19 18 19 20 19 19 20 19 18 18 17 16 15 15 14 14 12 10 9 10 10 10 11 9 10 11 10
24 26 27 28 25 33 27 29 26 27 27 23 19 28 36 34 22 26 17 20 27 25 19 21 20 27 18 23 25 30 25 26 28 29 30 30 29 29 29 30 29 28 27 26 28 28 27 27 25 24 25 24 23 23 22 22 22 22 21 19 19 19 20 19 19 20 20 19 18 17 17 15 15 14 15 13 12 11 10 10 9 10 10 10 9 10
21 23 21 25 22 23 30 37 33 28 24 23 19 18 25 20 18 17 22 25 23 19 17 26 30 23 18 19 24 27 26 27 28 29 30 31 31 31 31 29 29 28 27 28 27 27 26 26 25 24 24 24 24 22 21 21 22 22 21 20 20 21 21 20 19 20 19 19 19 18 16 16 15 15 16 14 12 11 10 10 10 9 9 10 10 9
30 26 21 19 25 34 29 32 34 30 29 21 20 20 18 25 27 20 25 24 16 17 22 23 25 28 17 19 26 32 37 28 25 28 28 30 31 31 30 30 30 30 30 29 28 27 26 25 25 25 24 24 23 22 22 22 23 22 22 21 22 22 23 21 21 20 20 19 19 19 18 17 16 17 15 14 12 12 11 10 11 10 10 9 10 9
30 25 27 27 30 36 26 33 31 29 30 23 22 20 20 24 27 19 24 21 17 14 22 26 27 26 18 21 27 32 26 27 25 27 30 30 32 33 30 31 31 29 29 29 29 29 27 26 26 26 24 24 24 23 24 23 22 23 22 22 22 22 21 21 22 20 21 21 21 18 18 19 18 17 17 16 14 15 15 12 11 11 11 10 10 9
29 24 17 26 26 26 21 21 23 31 27 24 25 22 25 18 23 15 20 11 18 18 17 15 25 22 20 23 29 33 30 24 25 27 30 30 31 31 31 31 31 31 29 30 30 29 29 29 28 26 25 25 24 25 25 25 23 23 22 21 21 22 23 23 22 21 21 20 21 21 19 19 18 17 17 18 15 14 12 13 12 11 11 11 11 11
23 20 20 20 20 27 25 21 21 24 21 22 25 22 24 14 20 11 14 18 19 19 18 21 31 20 20 19 18 28 29 22 27 31 28 29 28 30 31 31 31 31 30 30 30 30 30 30 29 27 26 27 26 25 26 25 24 23 23 22 22 24 23 22 23 23 21 21 21 20 21 20 20 18 16 14 16 14 12 11 10 11 10 11 11 11
16 21 23 21 20 27 26 27 24 27 23 25 24 26 25 26 14 13 17 9 13 18 17 18 23 20 18 21 27 34 37 33 28 33 29 26 27 27 30 31 31 31 30 32 30 29 30 29 27 28 27 27 27 26 26 26 25 24 24 23 23 23 24 23 23 23 22 24 22 21 22 22 19 20 17 15 13 14 14 13 13 11 11 11 11 13
18 22 25 26 25 27 19 20 24 31 31 29 28 25 20 22 24 21 18 17 15 16 15 20 17 21 22 26 22 28 34 30 27 31 29 25 25 28 29 31 31 31 32 32 28 28 27 27 27 28 27 27 27 26 26 26 27 25 25 24 24 23 24 25 24 23 25 24 23 21 22 22 20 19 19 17 15 13 11 12 12 12 9 10 11 12
19 22 27 23 26 22 18 18 23 28 19 19 26 19 24 23 23 21 16 21 12 13 15 21 19 23 20 23 19 18 27 21 30 29 31 26 25 24 27 29 30 30 31 30 29 29 28 28 28 29 27 27 26 29 28 26 26 25 25 25 25 24 24 25 24 24 24 23 22 23 23 22 20 20 18 19 16 15 13 11 11 10 11 10 11 13
20 20 23 26 20 20 14 15 22 27 23 25 21 27 20 24 23 16 15 16 16 17 15 17 20 22 20 16 15 27 22 22 31 30 28 24 24 24 25 27 29 30 29 29 29 28 29 29 29 29 29 27 26 27 27 26 24 25 25 25 27 26 24 25 25 25 24 24 23 24 24 22 23 21 21 19 19 17 15 14 13 12 12 13 14 14
22 18 20 17 14 19 13 16 22 20 18 24 29 31 19 17 20 20 15 10 12 11 12 22 30 19 25 21 21 19 17 16 17 26 24 23 24 25 23 25 27 28 28 30 29 29 30 29 30 28 27 28 26 25 27 28 27 26 24 26 26 26 23 24 27 26 26 25 25 25 25 24 23 23 21 20 19 17 18 18 16 15 12 12 15 16
24 21 21 21 19 18 19 23 17 18 20 17 25 26 20 20 21 21 18 15 26 11 13 20 28 17 19 25 29 17 18 17 13 16 25 20 22 23 24 26 29 29 28 30 30 29 29 30 29 29 28 29 29 28 27 27 27 25 25 23 23 23 23 23 25 24 24 28 25 24 24 23 24 23 23 21 20 20 19 19 18 16 13 14 16 16
15 18 15 21 17 19 25 24 23 25 21 19 20 19 24 18 23 23 19 19 18 17 10 19 16 18 20 31 29 24 19 16 16 17 17 19 21 20 21 24 26 28 29 29 29 29 29 29 29 29 28 29 28 28 27 28 27 26 26 24 24 24 25 24 25 26 25 24 26 24 23 25 23 22 22 21 21 19 19 18 16 16 14 14 15 16
17 18 13 25 22 23 24 29 26 27 23 23 22 18 24 21 22 17 19 25 24 22 19 16 16 22 23 20 21 29 20 25 20 16 16 18 21 19 20 20 23 27 27 27 27 27 29 28 29 29 31 29 29 29 28 28 28 27 27 26 26 26 26 25 27 26 26 24 23 23 22 22 22 22 23 20 21 19 20 19 15 12 13 13 16 17
18 16 24 18 22 18 23 27 18 19 19 17 28 27 35 27 23 20 12 14 25 26 24 29 13 17 22 17 14 18 16 22 17 18 17 20 20 19 20 21 21 23 26 28 28 29 28 28 29 31 31 30 29 28 27 26 27 27 25 25 25 27 26 26 27 26 26 25 23 22 22 22 23 23 21 21 19 18 19 18 15 15 15 15 15 17
9 23 16 23 24 30 21 23 21 16 17 19 24 30 29 21 17 20 18 15 19 15 17 20 13 17 18 20 23 17 20 16 25 20 20 18 19 18 19 20 22 21 23 25 27 26 28 27 28 29 30 32 31 28 28 27 27 26 26 27 26 27 27 27 27 27 26 25 24 23 22 23 22 23 24 22 20 19 18 18 16 17 17 17 16 18
18 14 23 15 17 22 28 22 21 15 18 17 16 19 20 20 16 15 20 14 16 17 23 19 14 14 17 23 28 25 23 23 23 28 15 21 24 21 20 21 21 21 23 26 27 27 27 27 31 32 31 31 31 30 29 28 27 27 27 26 27 27 27 27 26 26 26 26 25 24 24 22 23 23 23 22 21 20 20 19 18 17 18 18 18 17
24 21 16 17 16 13 14 13 13 18 19 22 19 20 20 17 17 18 15 16 17 14 20 20 19 19 33 35 28 24 23 28 25 20 16 22 17 20 22 23 23 24 25 26 27 27 28 30 32 31 30 32 31 31 30 29 28 28 28 27 24 26 27 27 26 26 26 26 26 25 25 24 23 24 23 23 21 20 21 21 20 20 19 19 18 17
22 14 19 21 22 24 20 23 21 22 23 17 20 26 23 21 14 16 16 18 18 17 19 19 25 25 21 21 17 19 22 20 18 17 16 19 17 20 19 21 23 24 24 26 26 28 28 28 30 31 31 30 29 28 30 30 30 28 27 26 26 26 27 27 26 26 26 26 26 26 26 26 25 24 23 23 22 21 21 21 20 21 21 19 19 19
17 20 16 17 17 22 22 26 18 26 21 22 27 22 23 21 12 14 16 16 19 20 19 18 20 19 18 23 21 17 17 18 16 21 19 25 25 20 19 20 20 26 26 26 27 29 30 29 30 29 30 30 31 30 30 31 30 29 28 28 28 27 26 28 26 27 27 26 25 26 27 26 25 25 24 22 22 22 21 22 22 21 19 19 20 20
16 16 12 17 18 18 17 25 25 21 21 21 23 23 22 18 16 17 16 18 21 19 21 17 25 20 19 19 17 16 19 19 15 24 23 21 26 23 22 20 24 25 25 27 27 27 30 31 29 29 31 31 28 29 29 31 30 28 28 28 28 28 28 27 27 27 27 26 26 26 26 25 25 25 24 24 23 23 22 22 22 21 21 20 20 20
19 18 18 18 18 21 17 19 18 22 20 18 24 17 22 26 23 19 19 18 17 19 22 23 20 20 20 19 18 21 20 17 16 19 17 19 22 26 19 20 24 26 30 31 29 28 28 29 29 30 31 31 31 31 32 30 30 31 30 29 29 29 28 27 27 28 28 28 27 26 26 27 24 25 25 25 25 24 23 23 23 22 21 22 23 21
21 16 21 23 21 23 19 18 19 21 18 25 24 23 22 18 19 20 21 16 15 20 21 21 19 21 22 24 18 18 19 18 18 17 19 16 18 18 17 19 20 23 28 28 26 25 26 27 29 29 30 30 30 31 33 31 30 31 31 29 29 30 29 29 28 28 27 28 28 27 27 26 27 26 26 25 25 23 25 26 23 23 23 23 22 22
20 14 19 24 20 15 18 19 19 21 24 27 22 26 23 18 20 21 23 27 24 20 20 18 20 23 22 21 17 17 21 22 19 15 15 18 21 19 25 19 22 24 24 30 27 30 32 29 28 30 31 32 32 32 32 31 31 31 31 30 31 30 29 29 28 28 28 28 27 28 28 27 27 27 27 26 26 26 25 24 24 24 24 23 22 22
16 18 17 17 20 12 18 23 24 22 21 22 20 27 26 21 26 26 28 31 28 25 20 16 22 19 21 20 22 19 19 17 18 20 16 21 19 16 21 22 20 19 21 31 29 28 29 30 29 30 30 31 33 34 31 31 30 30 30 31 30 30 29 29 29 29 29 28 28 28 27 27 28 28 27 27 26 26 25 25 25 25 25 25 23 21
14 16 19 18 17 13 22 23 25 20 19 15 24 24 28 25 29 26 25 30 28 26 24 21 22 20 18 20 19 21 19 17 20 16 17 18 18 18 22 28 24 22 17 21 26 30 33 30 30 31 32 30 30 33 32 30 32 30 29 30 29 30 30 30 30 29 30 29 29 28 27 28 28 28 27 26 26 26 26 26 26 24 24 23 23 24
15 16 16 22 21 20 18 24 21 19 15 17 20 26 29 29 29 27 23 30 30 30 26 24 25 22 23 22 22 22 24 23 23 23 27 24 22 20 19 19 15 19 20 19 17 23 32 28 25 24 27 30 33 32 31 31 29 28 28 28 29 29 29 29 29 29 28 29 29 29 28 28 28 28 27 27 26 25 27 27 25 25 25 25 24 24
18 14 18 19 20 20 19 20 21 12 18 16 18 19 19 19 20 22 16 25 30 28 28 24 24 22 24 25 24 25 22 25 25 20 19 18 23 22 24 20 23 28 31 31 15 16 18 23 24 23 25 24 28 31 31 30 30 30 29 28 29 30 30 29 29 29 28 28 28 29 28 28 27 26 26 26 26 27 27 26 26 26 25 24 24 24
22 17 16 20 14 19 15 17 22 21 20 17 14 20 25 22 22 20 13 23 26 28 26 26 27 26 27 25 25 27 23 25 21 19 22 27 26 16 17 23 27 25 27 27 25 18 17 18 21 21 21 23 26 30 31 30 30 30 30 29 29 30 31 32 31 29 28 27 28 28 28 27 27 26 26 26 27 27 26 26 26 25 25 25 25 25
16 19 15 18 17 19 20 22 24 19 17 15 13 19 21 18 17 14 15 14 22 27 27 25 23 25 28 27 26 25 24 19 23 22 21 25 22 21 20 25 19 21 21 20 13 14 16 16 18 20 22 22 24 26 26 27 29 28 29 30 29 29 31 32 31 29 29 29 27 27 27 27 27 27 26 25 27 26 25 25 25 25 24 25 25 26
27 20 18 16 18 19 17 22 22 21 13 16 21 22 23 24 20 11 17 16 22 30 31 30 29 24 23 25 26 25 26 17 28 23 26 28 28 27 20 23 14 22 21 23 22 19 26 17 17 20 20 21 24 26 26 27 28 30 28 27 29 30 30 29 31 30 29 28 27 26 26 26 26 26 26 26 26 24 24 24 25 24 23 24 24 24
28 23 20 18 15 20 19 21 19 15 14 19 22 22 23 25 27 18 19 12 27 31 30 29 29 28 26 24 23 22 25 21 21 24 26 29 27 28 29 31 31 31 25 18 15 19 22 16 18 19 19 21 24 24 25 25 27 25 27 28 28 29 30 29 28 29 28 27 27 26 25 24 23 24 24 25 24 23 23 22 24 24 24 25 26 25
16 15 18 15 16 17 17 20 21 19 17 22 24 25 25 22 17 18 13 22 30 29 29 27 26 25 26 23 23 24 22 20 21 23 23 27 30 33 34 32 31 26 28 23 23 12 17 19 20 21 21 21 20 22 23 25 24 26 25 26 28 29 29 26 25 27 28 27 27 27 27 25 24 24 24 24 24 23 22 22 23 22 23 23 24 22
17 16 14 15 16 18 19 18 16 20 15 24 25 20 27 22 12 14 21 22 24 25 26 25 26 25 25 21 24 21 23 21 23 22 25 29 30 31 35 35 36 36 29 24 21 18 16 15 15 15 18 18 21 22 22 23 24 24 23 23 23 22 22 23 23 23 25 28 28 26 26 25 23 21 22 21 21 20 22 21 21 22 23 24 22 22
18 15 12 13 17 16 17 17 19 15 16 29 25 18 27 18 15 16 20 19 21 23 25 24 28 26 26 24 23 21 24 21 22 22 23 24 29 32 32 33 34 34 33 33 32 30 26 16 15 16 15 18 19 21 21 22 22 23 22 23 22 21 23 22 22 24 26 25 27 23 23 22 20 20 22 20 19 20 19 19 21 21 22 22 22 24
20 16 14 13 18 16 16 15 12 18 22 19 21 15 17 17 16 18 21 23 23 24 26 24 25 27 27 25 25 23 23 23 23 25 23 23 24 22 23 26 26 28 33 33 33 32 27 22 21 18 13 18 16 19 18 19 22 21 21 20 20 19 18 20 23 24 21 24 26 24 23 23 20 23 22 22 20 20 21 22 21 22 23 22 21 22
18 16 15 15 21 20 17 17 15 14 16 15 14 15 16 19 18 20 20 21 24 24 24 24 25 26 25 26 25 23 23 23 21 21 22 23 26 27 25 26 24 23 21 22 24 27 27 25 29 28 29 29 24 19 19 19 19 18 19 17 17 20 20 20 20 20 21 22 22 20 23 23 23 23 23 21 22 21 24 22 22 25 23 20 23 20
17 19 17 18 20 17 24 20 16 17 15 13 13 14 15 18 16 19 20 20 20 24 24 24 23 25 25 24 26 24 27 25 23 23 23 24 25 26 25 26 26 27 27 26 27 21 21 18 18 22 26 27 25 22 23 21 16 15 16 19 18 19 20 19 18 20 20 20 19 21 23 23 24 23 21 23 22 22 22 19 20 21 22 23 23 23
21 21 19 16 23 16 14 20 20 19 19 15 13 13 12 15 15 16 15 18 21 23 22 22 24 25 24 24 25 25 27 29 27 26 25 26 28 28 29 29 28 29 30 31 31 26 26 22 21 23 21 20 20 19 18 17 19 18 22 15 17 19 18 19 18 19 19 19 20 23 26 26 23 22 21 20 21 21 22 20 21 21 21 21 20 20
13 21 19 23 23 24 21 22 19 18 16 15 17 16 16 16 15 15 16 17 19 20 21 22 23 23 25 26 26 25 27 30 30 29 28 29 29 29 30 31 31 32 32 31 32 31 29 32 29 26 22 24 19 19 19 20 18 20 23 25 22 17 19 17 17 19 20 25 25 22 19 21 14 18 21 22 21 20 19 19 18 17 16 16 16 17
21 20 14 23 26 21 18 20 22 16 15 17 14 13 15 15 16 15 16 16 18 20 20 21 24 23 25 25 25 26 28 29 29 28 29 29 30 30 30 31 30 31 32 33 33 32 34 31 32 30 27 26 24 23 21 17 17 15 13 16 14 10 13 12 12 16 19 19 19 18 18 20 21 17 15 16 18 19 18 18 14 15 18 22 17 16
18 17 20 20 15 17 19 20 19 14 13 16 15 14 14 14 14 15 16 17 18 18 19 19 20 23 25 25 25 27 27 28 29 29 29 30 30 29 29 30 31 32 33 33 33 32 32 31 31 30 30 29 28 27 27 28 28 28 26 24 22 22 17 14 13 16 16 20 19 19 19 18 18 19 18 21 20 19 17 13 18 17 16 16 13 16
18 16 20 16 16 17 18 17 14 13 13 14 12 12 11 13 14 15 15 16 17 16 17 17 18 18 21 21 23 24 24 27 28 28 28 29 30 30 30 29 32 33 33 32 32 33 32 31 31 30 31 30 28 28 27 26 28 29 30 30 28 26 23 18 14 17 18 15 17 19 14 14 14 11 14 14 12 13 14 15 18 16 16 11 10 12
Wind_Speed
10 7 6 7 8 8 4 7 10 8 9 10 7 1 5 3 6 9 8 9 11 9 9 10 10 10 10 10 10 11 10 10 11 12 11 11 10 10 11 11 10 12 12 13 14 14 13 15 13 10 10 10 9 8 8 8 8 9 8 5 6 6 3 4 4 4 5 3 3 4 3 3 2 2 3 4 4 4 4 6 4 2 4 4 3 4
12 5 6 8 2 8 6 6 7 9 11 10 4 5 3 1 7 8 9 8 11 8 8 9 9 9 11 10 12 10 11 13 13 12 11 12 10 9 11 11 13 11 9 13 13 14 14 13 14 12 9 10 9 7 8 6 9 7 8 6 7 6 4 4 6 6 5 5 4 2 4 3 3 3 3 3 4 3 4 5 3 4 2 4 4 4
11 8 8 4 4 6 7 8 8 9 9 9 7 8 8 7 12 6 7 19 10 10 4 11 10 7 7 10 10 12 11 9 11 10 10 12 11 10 10 10 12 11 11 12 13 14 14 16 15 12 8 10 10 9 7 8 7 8 5 5 6 6 5 4 5 4 4 4 4 3 3 3 3 2 4 5 4 2 4 4 4 4 5 4 4 4
8 2 1 6 8 6 5 6 8 15 7 4 10 12 7 5 7 7 19 23 11 8 6 8 5 5 6 9 11 11 11 10 9 8 9 9 10 11 11 11 11 14 12 14 14 14 14 14 12 12 10 9 10 10 9 9 8 7 6 5 6 6 6 5 4 2 5 6 4 2 3 3 3 4 4 3 3 4 5 4 4 3 3 4 5 5
8 10 10 9 12 16 15 13 15 11 7 14 15 4 4 6 8 4 5 8 3 7 5 7 6 6 5 9 10 10 10 8 11 11 11 11 9 10 10 11 11 14 14 13 13 13 14 14 14 12 11 10 10 10 8 9 8 8 9 6 7 7 6 5 5 2 5 4 3 4 4 4 4 3 3 3 2 2 2 4 4 4 4 4 5 4
5 11 16 14 14 14 11 10 17 14 7 6 8 6 6 8 8 10 10 10 7 4 7 8 5 5 8 6 7 9 9 11 11 12 12 12 12 11 12 12 13 14 13 15 16 15 15 14 12 12 12 12 13 11 10 10 9 8 9 9 6 7 5 6 6 4 4 3 5 3 5 5 3 3 4 3 3 2 2 5 4 4 4 5 3 4
0 4 5 9 10 9 6 5 9 9 4 3 6 7 9 10 9 8 9 8 8 7 5 2 6 2 1 7 8 7 10 11 10 12 13 14 13 12 11 12 12 13 13 14 12 15 15 14 13 12 11 10 11 9 10 11 8 11 10 8 7 5 4 3 7 6 4 4 3 4 6 4 4 4 2 3 3 4 5 5 5 2 2 4 3 2
6 7 8 8 9 8 7 8 10 10 5 7 8 10 12 12 9 6 10 8 3 3 1 3 4 4 2 7 8 11 12 11 12 13 13 13 14 15 13 12 13 13 15 14 15 14 14 15 13 13 13 10 10 9 12 10 9 9 10 9 7 6 6 5 6 7 5 4 3 4 5 4 4 4 2 3 2 4 4 3 4 4 2 3 3 3
8 8 10 11 10 7 8 7 6 8 9 8 12 16 10 10 11 15 2 8 5 2 3 3 5 5 2 1 9 11 13 14 14 14 14 15 14 14 14 14 13 14 14 15 15 15 14 13 13 12 13 11 12 10 8 11 9 9 11 9 8 7 7 8 7 7 7 5 5 5 4 5 3 4 3 2 3 3 3 2 4 4 4 2 2 2
8 9 11 12 10 7 4 7 11 10 9 11 11 6 13 8 9 4 10 7 5 4 4 5 10 7 3 2 4 8 8 12 14 15 14 15 15 16 15 15 16 15 15 14 15 16 16 14 13 12 13 12 12 9 8 10 9 10 8 10 9 9 6 8 8 8 9 8 6 5 5 5 4 4 4 3 3 4 2 3 2 3 4 4 2 2
8 13 13 8 7 7 9 11 10 11 14 13 9 10 1 12 7 4 2 3 5 0 5 7 9 9 4 8 9 9 12 13 11 11 12 13 14 16 15 15 14 13 14 15 16 15 14 14 14 14 12 12 8 9 10 10 10 10 9 11 10 9 7 7 9 8 9 8 7 6 6 6 6 7 5 4 5 5 3 4 4 2 2 3 4 3
16 15 13 4 2 3 7 7 9 11 12 11 3 6 2 1 5 4 1 1 1 2 8 8 5 4 5 3 10 11 9 14 12 14 15 16 16 15 14 15 15 15 14 14 14 16 16 14 14 14 12 10 11 11 12 11 11 11 10 10 11 9 8 6 8 8 9 8 8 6 6 7 6 6 6 5 5 6 6 5 6 5 3 4 4 2
12 10 1 7 6 4 6 4 5 7 8 3 8 7 5 2 2 0 0 1 3 2 4 3 16 5 5 7 5 15 14 14 13 11 14 15 16 16 16 16 15 15 16 16 16 16 16 15 14 15 14 12 13 9 13 12 9 10 11 12 11 10 9 8 8 7 9 8 8 6 5 5 5 5 6 7 7 5 6 5 4 4 5 5 4 4
8 11 9 9 8 5 8 5 4 4 6 4 4 6 6 3 0 2 2 1 2 2 3 12 15 5 5 7 9 10 15 12 9 13 14 16 15 16 16 16 15 15 15 15 15 15 16 15 15 14 14 16 13 11 12 11 9 9 9 11 12 12 11 9 8 8 7 9 7 6 6 5 6 5 5 4 6 5 4 5 4 5 5 4 5 3
2 3 5 7 4 10 12 6 5 8 3 1 8 8 7 5 4 1 2 0 4 1 2 7 3 2 3 1 7 9 11 9 7 7 10 14 15 15 15 16 17 16 15 14 15 15 17 15 15 14 14 14 14 12 12 12 11 10 11 11 12 12 12 10 11 9 7 8 8 7 7 6 6 6 6 5 4 4 5 5 5 4 6 5 4 5
2 6 9 15 2 11 9 10 9 4 6 10 5 7 4 7 10 3 5 2 3 1 3 0 2 4 4 9 11 6 6 8 5 11 8 12 14 15 13 15 15 15 15 14 14 15 14 16 15 13 13 13 14 14 12 15 11 10 12 12 11 10 11 10 11 9 8 8 8 8 8 7 7 5 5 4 3 3 4 4 5 4 3 4 4 5
4 5 8 9 6 7 9 9 9 3 4 3 6 6 8 5 5 2 3 2 6 3 3 2 1 1 1 6 3 10 12 7 11 9 9 10 12 14 13 14 15 15 17 17 15 14 15 16 14 14 14 14 14 15 14 13 14 11 10 11 11 11 11 11 11 10 9 7 7 9 8 7 7 6 6 5 3 2 3 3 3 4 4 3 2 3
4 4 14 14 11 11 5 8 4 8 2 5 2 2 4 6 6 4 1 3 1 1 2 4 2 5 3 0 3 9 8 13 17 13 14 12 12 13 12 12 13 14 13 14 14 14 16 17 17 15 15 15 14 16 15 12 13 12 12 14 15 13 13 13 11 11 9 8 8 7 10 8 8 7 7 6 4 3 2 2 1 5 5 4 4 3
7 1 6 9 5 7 5 3 10 11 9 4 2 1 2 3 5 2 1 0 2 2 1 5 2 4 3 4 1 5 5 5 11 16 15 13 13 14 13 14 14 13 13 14 15 15 15 15 16 13 15 17 15 15 16 13 12 15 14 14 14 14 13 12 11 10 10 10 8 9 8 9 8 6 6 7 6 5 4 4 4 4 3 5 4 3
7 2 5 3 6 9 6 5 2 5 5 5 3 3 6 5 3 3 3 2 3 1 2 5 6 2 1 3 2 7 4 4 6 8 10 11 14 13 12 14 14 12 9 13 14 14 14 15 17 16 15 17 17 17 16 15 13 13 13 12 13 13 13 13 13 11 11 13 11 10 9 9 9 8 7 7 8 6 6 7 6 6 4 5 4 4
0 3 3 2 4 1 2 2 4 6 4 4 4 2 2 3 5 5 4 4 3 1 3 4 1 4 3 4 6 4 4 7 3 6 8 7 8 11 12 13 11 13 11 12 12 15 15 15 16 16 15 16 16 16 15 15 14 13 13 12 12 13 13 12 13 14 12 12 12 11 11 10 9 9 8 7 8 7 8 7 7 7 6 7 5 5
1 3 3 5 5 6 2 4 3 5 2 2 5 4 3 3 3 2 1 2 4 2 3 1 1 7 7 5 3 3 8 2 6 2 6 9 14 9 8 7 10 11 11 9 10 12 14 15 16 16 15 14 14 15 16 14 13 15 16 13 11 12 12 11 12 11 12 11 9 11 10 11 9 9 9 8 8 9 7 7 6 4 6 6 6 6
4 2 4 0 4 6 5 8 5 7 8 5 5 0 1 3 3 2 1 2 3 3 5 6 4 4 3 4 3 7 3 6 8 6 7 8 1 6 8 10 8 7 11 10 8 10 11 15 15 17 17 15 15 15 16 14 14 13 14 13 11 13 13 12 12 11 11 9 9 10 10 10 11 11 9 9 7 8 8 7 6 6 4 6 6 6
6 4 0 5 3 9 11 7 11 8 6 7 5 2 4 3 4 4 4 2 2 3 3 1 1 1 6 10 9 8 11 6 4 8 4 4 4 7 6 10 9 6 9 9 7 6 10 15 15 14 16 16 14 13 14 12 14 12 11 12 11 12 14 14 13 12 12 12 10 10 11 11 11 12 12 10 8 8 8 7 6 5 5 6 5 7
4 3 4 4 4 2 2 3 6 5 4 4 4 3 8 5 5 5 7 3 2 2 1 3 0 1 2 5 6 13 5 6 7 10 7 10 3 10 3 4 9 5 8 11 9 6 7 11 16 16 16 16 15 13 12 11 13 13 11 11 12 12 12 13 12 12 13 13 12 11 11 11 11 11 12 11 8 9 8 8 6 5 7 6 6 7
6 4 2 1 2 1 0 2 1 1 3 3 4 4 5 10 8 3 3 4 3 2 4 1 1 3 0 4 7 12 5 1 3 3 7 13 9 2 14 12 2 3 6 8 9 7 8 10 14 15 13 14 14 14 13 12 13 13 12 11 11 11 12 13 12 12 12 13 13 12 12 11 10 11 12 12 10 9 9 8 7 7 6 7 8 8
3 4 2 3 2 3 2 3 5 6 5 5 7 5 2 11 5 9 2 3 2 5 5 2 5 3 0 4 4 6 3 3 5 4 5 9 5 6 9 9 4 5 4 7 6 6 6 8 13 15 13 12 13 11 11 14 15 14 12 12 13 12 12 12 12 13 12 13 13 13 13 13 12 11 11 10 10 8 9 9 8 9 9 8 7 7
4 4 4 6 5 5 5 5 3 6 8 10 9 3 9 11 4 3 3 2 3 2 2 6 3 1 4 3 3 6 5 2 4 2 9 6 6 5 7 10 10 9 7 5 6 7 6 5 10 12 13 13 12 12 11 14 14 13 12 13 13 13 12 12 12 13 13 12 12 13 13 13 12 11 10 9 9 10 9 9 9 9 8 7 8 9
6 2 5 7 6 8 8 8 7 6 9 10 11 11 8 7 10 9 5 6 8 1 3 1 5 6 6 5 8 9 6 6 5 1 9 5 1 6 9 8 5 6 7 8 7 7 7 8 8 9 10 9 9 9 11 14 13 11 11 13 13 13 13 12 12 13 13 13 12 12 12 11 11 10 10 10 10 10 10 9 8 8 8 7 6 7
3 1 7 8 8 5 7 8 4 9 10 8 15 8 5 5 2 2 7 11 9 5 6 5 4 5 6 5 5 1 5 3 6 7 8 9 9 13 11 3 7 7 9 10 10 9 10 11 7 7 8 6 13 12 10 12 13 15 13 13 14 13 13 12 12 13 13 13 12 11 12 12 10 11 11 11 11 11 10 10 9 8 8 9 9 8
3 2 7 6 6 8 8 8 5 8 8 7 10 10 9 7 9 12 12 11 10 9 10 9 9 7 5 7 9 4 4 7 8 9 6 3 4 8 5 5 11 11 11 12 11 12 11 12 12 7 6 6 3 6 4 3 9 12 14 13 13 14 14 14 13 12 12 13 12 11 12 11 11 11 12 11 11 10 11 11 9 9 9 9 9 9
2 2 4 4 2 5 6 8 8 8 11 9 8 18 16 11 12 11 9 13 13 11 10 9 7 6 8 10 11 8 9 7 5 5 3 3 3 5 5 5 2 5 7 6 2 4 7 12 12 10 8 6 7 4 3 9 8 6 11 13 15 14 13 13 12 13 13 12 12 12 13 11 12 12 12 12 12 12 11 10 10 10 10 9 9 9
1 2 2 3 2 2 8 13 16 12 7 5 8 9 13 13 13 14 14 14 16 14 10 5 8 5 6 8 9 8 8 9 6 8 8 5 3 4 5 8 3 9 5 3 5 6 6 10 14 12 11 10 10 11 14 4 4 13 14 13 13 14 13 13 12 13 12 12 12 13 12 12 12 12 12 12 12 11 11 11 11 11 10 11 9 7
2 1 2 2 0 2 7 8 9 7 2 3 6 10 11 11 14 14 12 14 15 13 9 10 10 11 11 10 11 10 8 5 4 6 8 9 6 3 9 6 8 2 8 9 10 6 9 11 12 13 13 13 13 15 14 12 12 8 10 8 11 13 14 13 13 12 13 12 13 13 13 12 13 13 12 12 12 11 12 11 12 10 9 9 9 9
4 3 1 1 2 2 3 7 6 3 1 4 4 9 10 12 13 10 11 13 14 14 15 13 14 12 12 12 13 14 12 12 6 6 7 7 8 7 7 5 6 3 3 3 4 15 18 17 14 12 12 15 15 15 13 11 11 13 16 13 13 12 12 13 14 13 12 12 12 12 12 13 13 13 12 12 12 11 12 12 11 11 10 9 9 9
2 1 1 0 3 1 1 2 1 2 3 6 5 10 9 6 10 8 9 14 16 16 14 12 13 13 15 15 15 14 13 14 11 5 8 8 8 6 6 6 5 6 5 2 5 4 7 14 11 10 10 8 10 15 13 12 12 14 10 9 11 10 10 12 12 12 12 12 12 12 12 13 13 12 12 12 12 12 13 12 11 11 10 9 9 8
6 2 2 1 1 2 1 2 3 4 1 8 6 9 10 8 8 5 1 9 15 13 13 12 12 13 14 14 14 14 13 12 8 8 13 11 7 6 5 4 4 5 5 6 9 11 6 2 8 10 4 8 14 14 14 15 16 12 10 8 9 9 10 11 11 11 10 11 12 12 12 12 13 12 12 13 12 13 12 12 11 10 8 9 9 9
8 3 2 3 2 4 3 4 2 2 1 4 7 9 7 9 10 5 2 3 12 12 12 11 11 12 13 13 14 15 10 4 4 6 11 15 11 6 7 4 6 6 6 10 7 3 6 8 8 3 7 9 4 7 6 7 12 9 9 11 10 13 13 11 11 12 11 10 10 10 11 11 12 12 12 12 13 13 11 11 10 10 9 10 9 9
6 7 3 3 3 3 4 4 3 2 2 4 6 6 6 7 8 5 3 2 8 12 12 10 10 11 12 12 13 12 9 4 6 9 13 15 17 17 13 9 8 14 12 12 14 10 9 4 3 4 0 3 14 7 2 14 11 7 11 9 11 11 11 13 12 11 10 9 8 9 10 11 12 12 12 12 12 11 11 11 10 9 8 8 8 8
8 4 6 3 3 4 4 4 2 2 0 7 10 9 8 6 6 3 3 2 7 9 12 11 11 12 9 10 10 8 9 7 9 10 13 14 14 12 14 17 18 16 16 8 10 7 4 4 3 3 4 6 9 9 5 7 7 10 8 13 14 14 14 14 11 9 10 10 11 11 11 8 9 9 11 12 11 10 10 8 8 9 9 9 9 9
2 2 0 0 2 6 7 0 4 2 3 9 13 14 12 11 6 5 1 2 3 2 6 9 12 14 12 10 9 7 8 8 8 11 10 12 13 15 15 13 10 12 17 15 14 12 2 3 0 2 3 4 8 8 8 7 6 7 3 8 10 13 11 5 1 5 4 3 4 7 10 10 10 10 9 9 9 10 9 8 8 7 8 9 8 8
1 2 1 1 4 2 1 3 2 1 3 10 13 11 12 8 0 2 3 5 6 5 2 4 9 12 13 11 8 6 7 9 12 9 12 13 13 12 13 13 15 14 10 12 13 13 10 5 1 2 3 1 8 8 8 8 8 5 1 4 11 8 2 7 11 9 7 6 9 12 11 8 7 8 9 9 8 7 8 8 9 8 8 7 7 8
4 3 3 4 5 3 2 3 1 1 3 12 14 5 14 4 2 3 5 3 8 10 9 5 6 10 11 11 11 10 9 9 11 14 14 14 14 14 14 16 16 14 15 14 13 16 15 10 7 7 4 3 5 5 8 9 10 9 9 12 14 8 10 9 7 8 10 12 15 13 10 10 12 10 8 8 9 8 7 6 7 8 7 6 6 6
8 2 2 4 6 3 5 4 2 1 7 9 9 4 7 5 3 4 5 5 4 5 8 8 10 9 9 10 9 6 8 10 15 15 14 14 13 13 13 14 13 14 15 16 14 11 12 13 14 13 5 10 6 2 3 4 5 7 12 10 10 5 3 7 7 10 9 8 8 7 6 7 5 7 5 6 7 9 8 7 5 4 4 6 7 6
8 6 5 3 6 3 1 2 3 5 4 5 7 7 6 7 7 7 5 5 5 4 8 6 8 9 9 10 9 11 9 9 6 6 9 14 16 17 14 13 13 14 14 15 14 13 7 9 9 13 19 18 18 13 12 8 4 4 2 7 5 3 4 3 8 9 9 8 7 7 5 2 6 6 5 1 2 4 4 3 8 6 8 6 4 4
3 5 2 4 4 4 6 3 1 0 5 6 5 4 5 6 7 8 8 6 6 6 7 7 9 10 9 7 8 9 11 11 10 10 8 9 12 13 14 15 16 15 14 13 13 14 14 11 12 14 10 9 12 12 10 9 11 10 5 2 4 5 6 8 7 7 8 8 3 2 6 5 1 2 3 4 6 8 8 8 7 4 3 5 7 10
4 8 5 4 3 3 3 4 5 4 4 7 5 5 4 6 6 7 7 7 7 8 9 9 9 10 10 10 10 10 13 14 13 12 11 10 11 12 13 13 14 14 16 17 17 17 15 12 8 8 10 6 9 10 9 11 10 11 14 8 1 2 4 2 2 7 6 8 11 12 12 12 9 9 8 8 6 7 5 3 5 5 2 1 2 4
2 7 6 4 7 5 4 4 4 2 1 3 5 5 6 7 8 8 7 8 9 8 9 9 10 11 10 10 10 10 11 12 13 12 12 12 12 13 13 14 14 14 14 15 17 17 17 18 18 16 14 14 12 12 11 12 11 11 12 14 13 8 6 6 5 3 5 5 4 4 7 7 7 5 6 2 4 3 1 1 2 3 4 5 3 4
1 4 2 5 3 4 3 4 5 2 3 4 6 7 6 6 6 7 8 9 10 11 11 11 10 9 10 10 9 9 9 10 11 11 11 10 11 11 11 11 12 13 14 15 15 15 15 16 17 16 17 16 15 14 14 11 12 11 9 6 8 5 7 6 7 7 5 4 4 4 6 6 5 0 1 3 6 8 8 6 5 6 3 1 2 3
2 6 6 4 2 3 4 3 5 1 1 4 6 7 7 6 6 6 7 9 10 10 10 10 11 10 10 9 9 8 8 8 9 9 10 10 11 12 12 12 10 11 12 12 11 13 15 16 16 16 16 14 13 14 14 14 13 14 16 14 12 13 10 8 7 5 6 5 5 5 7 4 2 3 2 4 6 7 5 4 7 6 3 3 2 6
6 6 6 4 3 2 2 3 5 4 2 3 4 5 6 6 5 7 8 7 8 8 8 8 9 9 9 10 10 10 9 8 8 7 8 9 10 10 10 12 12 12 12 12 11 12 13 13 14 15 16 14 14 14 14 14 15 15 14 15 15 15 14 11 6 5 4 8 8 7 7 5 4 3 4 5 5 4 5 5 6 10 11 9 7 9
Wind_Direction
220 214 218 216 215 202 217 235 236 253 279 267 238 258 345 331 303 308 228 195 190 201 192 201 219 155 176 183 172 179 184 197 199 195 189 202 188 187 183 181 175 170 167 163 169 165 161 154 155 151 157 158 143 160 152 146 138 130 135 148 131 126 175 145 147 148 140 163 167 154 147 116 85 78 90 79 85 80 53 30 42 47 114 93 81 57
219 179 241 194 311 339 339 336 337 308 297 290 315 11 302 146 272 252 298 258 174 206 194 200 201 183 184 196 169 176 184 202 203 199 190 206 180 189 190 183 163 167 161 164 166 162 159 153 157 159 174 144 154 169 149 145 139 150 143 145 128 127 194 166 181 162 165 167 164 173 139 138 133 156 149 117 98 87 86 95 41 5 42 113 114 104
206 194 204 119 81 357 336 323 340 293 285 343 293 234 197 181 200 171 243 276 201 200 216 219 206 172 192 198 171 166 188 197 211 203 196 209 182 190 191 186 161 157 165 163 172 162 162 161 162 160 183 151 164 146 154 143 144 134 132 119 125 137 200 184 206 165 145 134 138 156 147 141 139 131 74 80 83 84 90 90 88 59 21 29 66 80
189 182 150 112 84 20 315 314 281 259 242 236 245 227 194 197 193 175 194 221 191 202 203 197 201 69 183 216 164 177 192 196 198 192 197 219 190 188 193 185 171 161 172 173 171 166 165 168 159 163 176 160 151 151 170 158 136 140 129 139 142 156 201 175 210 95 117 125 155 130 127 101 120 98 107 112 128 129 113 80 71 75 89 56 39 51
155 220 206 162 159 178 202 196 219 238 233 192 230 262 228 181 210 233 153 171 170 238 228 166 175 175 152 210 176 185 188 188 196 199 202 204 198 193 192 188 178 165 169 166 175 169 167 168 164 168 177 155 155 171 167 148 148 153 145 161 155 163 213 147 185 169 122 143 140 113 106 83 83 121 135 154 122 70 85 105 99 83 54 64 75 41
108 147 169 182 191 204 220 181 203 216 219 251 277 263 256 244 209 207 218 186 180 220 220 171 212 206 161 203 216 162 190 199 186 197 201 203 194 194 195 190 183 168 171 171 177 173 170 170 168 170 176 173 166 174 161 146 170 142 153 166 158 159 219 156 174 148 127 116 118 123 113 137 161 154 165 163 135 152 73 94 80 53 67 63 71 86
326 102 177 191 197 198 210 219 241 244 268 312 270 222 232 242 239 218 201 188 195 195 171 230 246 182 135 199 223 202 202 198 200 198 198 200 193 193 201 188 189 178 170 178 177 176 172 170 177 172 172 173 166 169 164 154 169 149 158 160 157 162 180 171 155 137 122 117 143 148 144 175 186 151 199 113 131 129 118 99 97 65 51 92 76 77
210 211 207 207 204 196 200 212 222 227 232 238 250 227 223 231 192 250 248 196 103 266 43 237 228 264 213 217 204 205 207 203 206 206 199 199 192 191 193 196 187 177 180 181 174 179 177 170 182 176 172 180 166 170 166 160 161 152 150 156 160 158 159 194 133 145 139 150 183 162 179 182 184 161 132 131 100 93 94 119 125 137 102 77 81 62
196 211 204 198 217 210 213 222 248 227 227 245 233 202 218 229 174 213 314 323 41 45 242 215 275 264 269 348 202 213 219 205 207 203 201 197 197 187 195 191 189 183 179 182 176 173 181 171 182 177 176 177 164 179 174 148 158 153 158 158 167 169 171 178 153 160 157 173 187 184 197 166 190 136 165 158 135 118 110 102 64 77 103 63 24 84
200 220 207 223 213 227 213 243 236 237 239 245 274 231 189 191 1 327 117 104 326 360 270 175 222 238 267 250 219 201 224 214 208 201 200 202 193 190 196 193 190 192 178 181 174 177 177 179 177 182 177 175 183 157 153 145 158 155 158 158 179 163 180 161 171 164 161 180 190 190 209 176 153 158 185 161 141 114 144 132 121 177 148 129 157 65
314 292 284 230 160 187 217 231 229 230 246 276 266 240 102 63 78 3 101 121 84 198 241 257 233 209 230 193 209 189 209 206 206 192 200 203 197 190 191 192 191 185 180 187 178 179 174 178 180 182 179 181 156 158 157 151 167 161 166 161 175 165 175 168 168 173 168 177 192 203 198 183 163 179 186 161 154 130 197 153 148 232 172 126 105 108
261 264 238 124 223 213 176 221 219 241 256 274 353 358 38 115 72 93 357 206 77 270 266 253 206 4 270 202 184 215 213 207 204 203 199 194 199 196 184 188 189 189 187 186 178 178 173 180 181 181 182 170 169 176 159 161 170 172 167 163 169 169 177 173 175 182 167 171 189 201 201 191 179 189 181 161 173 162 190 173 158 182 127 122 128 143
278 256 170 153 172 221 135 349 290 251 254 284 50 18 8 282 342 231 122 174 229 239 219 256 100 38 263 242 220 197 206 207 195 201 194 195 195 197 185 187 191 188 186 183 190 181 177 180 182 184 182 175 184 174 163 168 177 168 162 166 171 172 178 175 178 201 166 174 184 197 208 195 187 192 186 167 195 183 183 164 156 168 162 140 147 172
223 232 168 169 149 146 140 198 176 233 206 81 81 79 350 360 227 286 160 345 281 294 262 102 161 150 227 257 234 183 197 215 218 194 189 191 193 193 187 183 191 188 188 187 190 177 173 179 184 182 181 185 180 185 163 172 185 165 168 166 172 175 178 173 174 197 179 174 174 193 198 210 183 206 188 203 182 193 164 159 158 176 152 164 157 176
280 294 195 163 200 186 205 159 211 142 297 232 136 138 149 179 307 238 284 105 312 332 256 156 181 186 160 150 136 182 194 180 234 245 185 182 188 189 190 185 188 190 184 188 184 179 181 180 181 180 180 180 176 185 171 171 189 169 167 176 177 174 176 173 173 189 193 175 179 189 200 209 192 201 195 211 206 177 175 167 169 195 159 172 165 165
307 289 311 301 45 209 203 171 210 212 167 148 138 85 100 231 211 290 323 30 208 112 195 324 45 9 140 200 181 170 146 148 218 232 201 185 181 180 191 188 187 185 180 196 193 184 169 171 177 177 176 177 176 179 188 180 184 180 181 172 175 182 175 178 178 181 196 184 178 189 203 205 198 197 197 215 211 183 166 192 166 168 141 156 193 156
215 267 276 267 238 228 232 174 196 208 238 131 198 179 208 205 213 269 284 316 17 3 13 284 120 116 24 339 170 170 176 177 184 193 204 190 186 175 186 188 194 188 182 192 190 185 165 170 173 177 175 180 178 181 188 186 182 177 174 167 176 187 180 183 182 180 186 198 186 185 201 206 200 199 195 202 208 233 177 184 153 130 183 176 141 132
217 222 209 212 199 223 161 242 116 217 188 157 232 211 207 211 213 200 254 321 216 206 113 242 162 110 36 87 95 86 140 178 160 166 205 181 195 170 185 189 190 189 186 181 185 182 170 173 176 179 181 182 178 181 187 200 173 167 181 183 180 191 186 183 183 180 183 191 201 192 197 209 207 199 191 186 196 221 197 161 227 159 184 136 151 186
244 294 274 222 268 173 146 211 160 231 189 214 38 66 290 88 292 167 209 42 307 360 108 312 34 96 188 157 119 88 68 302 144 178 172 175 176 187 186 187 187 193 188 180 183 188 176 166 176 179 176 184 178 182 186 196 174 181 187 184 183 187 188 184 185 181 182 187 199 204 200 203 208 207 196 180 196 207 201 191 199 205 181 154 168 186
225 257 202 152 270 143 202 199 232 298 200 213 161 270 3 312 337 295 323 270 93 306 54 240 271 108 357 99 195 158 194 287 112 159 190 184 178 176 180 188 189 191 185 185 183 183 180 168 172 178 176 183 180 183 184 189 192 176 175 190 186 182 183 179 185 184 183 191 199 198 193 201 209 208 210 185 187 195 200 211 204 203 177 163 175 175
158 19 294 105 250 79 235 310 120 201 236 286 273 98 187 306 30 336 297 294 129 132 95 288 176 46 160 232 144 174 201 182 125 110 254 144 160 192 183 183 184 191 185 190 193 180 185 162 170 175 174 185 182 183 192 185 193 176 179 197 191 173 174 181 187 179 190 192 198 193 186 196 202 204 209 209 185 199 199 211 214 197 183 157 184 178
90 242 314 5 345 350 14 187 344 276 194 126 239 242 225 195 310 279 282 50 331 95 163 194 282 261 249 258 28 59 212 236 160 172 220 139 198 160 182 181 174 185 171 183 191 180 177 158 167 173 179 189 182 180 181 184 191 190 183 194 189 164 175 189 188 188 190 190 189 184 190 191 193 205 208 214 193 196 201 208 217 213 166 165 176 187
4 323 251 10 347 282 314 334 234 237 266 197 246 58 279 121 241 144 290 348 309 12 139 140 184 237 342 30 90 193 188 315 34 255 122 273 184 178 168 162 158 181 168 176 195 182 166 155 167 176 181 189 184 178 183 186 189 195 190 185 190 179 178 188 194 189 186 192 192 188 190 192 190 198 210 210 213 194 198 212 212 205 168 169 179 192
343 260 148 168 168 260 248 206 261 264 245 242 216 249 218 159 200 215 285 17 309 286 345 106 113 44 18 342 346 336 76 129 207 248 239 95 357 290 164 157 164 163 156 167 191 185 166 158 168 177 181 188 199 181 180 187 177 189 195 184 185 177 178 186 196 190 185 189 198 190 191 195 190 195 201 213 211 204 196 205 211 201 192 191 182 193
278 23 8 34 324 274 335 323 290 355 334 26 338 299 277 221 207 286 282 165 258 66 188 312 314 140 30 328 12 324 80 29 4 355 328 102 213 270 86 208 147 164 164 169 181 176 169 160 174 184 188 191 195 188 185 186 169 185 193 186 180 179 177 187 194 194 187 190 194 196 195 197 194 193 198 207 206 206 203 205 206 201 204 188 193 207
314 314 325 319 69 344 337 229 30 331 4 290 213 266 300 319 142 213 264 31 298 34 338 308 213 157 30 19 349 318 359 356 87 330 285 141 193 284 70 330 291 162 154 173 166 174 188 181 180 187 189 190 195 194 182 185 176 184 192 178 175 178 180 187 191 192 190 187 190 195 198 199 198 197 198 200 206 199 202 207 210 204 211 203 198 205
282 305 296 50 322 333 346 263 273 276 284 302 320 309 218 253 166 190 262 256 287 14 313 25 35 20 321 275 282 336 327 52 22 327 24 46 157 114 136 190 218 153 161 172 174 189 196 191 182 187 190 194 193 198 186 185 187 191 186 178 179 180 181 186 187 191 192 187 190 193 198 199 200 199 199 200 200 200 200 205 206 212 211 206 210 207
266 271 79 135 185 272 333 250 225 244 263 262 265 308 344 323 325 322 311 348 83 294 293 56 150 267 359 39 161 251 331 305 179 274 43 32 2 332 230 162 179 162 177 171 172 194 217 218 185 183 192 197 195 195 188 179 189 188 185 179 181 183 182 186 187 191 192 188 189 195 195 200 199 199 200 198 198 201 206 206 206 206 214 205 203 210
355 340 329 305 228 239 241 245 268 284 259 263 252 258 242 261 337 319 253 212 175 241 322 320 343 327 354 4 29 12 334 338 305 13 130 142 121 307 297 276 148 149 160 186 186 189 221 217 218 188 187 185 189 200 196 181 183 185 185 186 183 185 184 183 187 190 193 191 193 193 194 195 199 199 199 199 198 203 205 210 211 204 206 211 211 211
345 319 8 319 326 281 287 290 260 268 286 312 357 4 334 309 8 264 304 48 317 257 233 250 273 41 55 354 293 71 300 282 297 138 134 160 180 221 223 179 125 163 187 208 207 209 211 230 213 188 173 193 191 194 202 180 187 194 192 188 183 187 184 184 187 193 194 195 194 192 192 193 196 198 198 198 201 204 206 208 211 211 208 206 212 215
317 30 4 2 338 318 300 278 247 242 246 35 310 319 329 312 333 356 3 2 345 341 7 6 25 25 13 344 323 65 48 324 342 330 25 352 344 11 17 168 200 214 207 188 224 201 212 221 211 188 194 170 114 120 183 247 194 194 205 196 186 191 188 187 186 194 196 196 195 193 194 194 195 199 200 199 203 203 205 209 209 211 214 213 209 212
360 326 355 7 4 311 294 274 268 312 332 319 3 3 338 359 11 4 29 24 20 356 357 4 41 358 13 353 340 344 344 348 331 339 54 295 352 335 324 348 144 342 327 297 95 294 197 207 217 195 188 193 150 124 211 194 197 239 220 193 192 188 188 187 187 193 195 199 194 194 196 197 196 199 202 200 203 205 208 209 209 210 212 214 211 209
319 341 342 28 312 300 343 356 351 327 335 314 32 6 354 6 19 24 28 30 29 12 13 4 14 15 345 342 326 349 337 349 347 332 315 288 209 192 245 260 248 167 223 277 245 217 251 225 218 210 201 188 159 172 206 196 148 212 220 206 185 188 189 185 185 190 196 199 197 197 197 196 200 200 203 204 203 204 207 210 213 213 210 214 213 210
213 224 254 142 210 348 6 13 352 314 262 37 3 16 7 27 29 43 34 28 28 26 20 18 14 0 3 347 346 330 333 315 324 3 24 354 336 318 292 329 328 24 152 192 230 221 228 234 220 215 209 203 170 181 191 181 191 262 263 189 193 192 188 189 186 190 197 199 202 199 195 198 201 204 204 203 204 204 205 208 213 213 213 210 210 213
269 226 235 171 273 300 8 27 17 326 340 160 64 30 20 30 34 72 78 47 25 20 16 17 8 357 352 351 349 341 337 339 330 29 344 30 353 360 24 35 27 43 84 32 200 177 215 221 215 214 205 211 180 178 179 184 169 196 225 202 198 190 189 194 191 190 197 200 205 204 198 200 202 205 205 202 204 206 208 209 209 210 209 209 211 213
206 215 28 302 231 175 294 97 77 173 59 111 68 30 9 28 31 32 71 45 27 18 13 8 359 357 351 351 348 346 340 335 326 19 9 35 350 338 5 358 26 4 347 11 286 280 201 211 225 222 209 208 191 171 178 183 186 195 206 207 189 190 193 195 197 196 192 199 203 209 206 202 205 205 206 207 204 206 209 210 211 209 205 207 211 215
234 201 204 254 118 263 278 227 230 32 26 32 17 15 7 10 345 358 20 49 20 11 8 357 354 0 357 351 349 344 342 340 324 36 6 16 27 359 356 351 355 356 311 293 281 264 257 209 189 211 236 200 210 183 183 193 194 182 184 165 198 188 213 199 198 201 196 199 200 208 210 207 208 206 206 208 209 209 208 209 209 211 202 206 209 210
200 234 291 253 219 224 262 258 241 141 206 78 22 355 358 358 339 348 259 67 15 6 356 358 357 354 355 353 354 340 317 356 3 45 22 356 341 305 315 346 322 290 286 277 271 304 27 36 23 138 188 162 319 352 317 230 195 175 200 174 193 183 206 202 199 200 209 213 205 204 210 213 213 213 209 210 212 211 210 207 207 210 202 207 209 211
30 22 225 250 284 232 246 278 278 265 150 19 11 348 341 327 327 340 318 41 3 342 340 343 355 359 355 352 356 354 3 24 9 16 7 358 354 2 1 350 347 351 341 7 323 67 83 48 35 331 215 145 116 211 1 345 324 216 192 188 188 178 206 210 204 198 201 210 210 207 214 218 215 215 212 213 215 213 211 206 206 203 198 203 210 216
41 22 349 284 252 246 268 276 2 29 96 345 340 338 341 319 289 333 274 71 17 7 324 337 357 5 358 351 358 11 18 4 358 349 359 357 355 7 23 16 13 3 321 13 337 104 117 139 175 28 353 86 128 142 144 171 214 262 236 208 193 184 201 205 200 199 208 212 216 216 217 214 221 219 214 213 214 214 215 209 204 201 198 204 211 213
16 337 346 182 293 29 1 312 135 139 33 348 337 333 342 326 290 243 301 334 321 78 318 333 359 358 360 4 9 8 12 4 345 345 5 10 12 8 14 27 18 14 358 1 341 317 360 131 210 233 247 148 146 149 151 172 209 241 273 281 250 213 198 135 339 223 174 224 235 238 221 215 218 225 220 216 212 210 212 210 213 206 201 205 208 213
352 307 222 125 11 1 209 325 74 76 16 332 335 354 347 299 302 33 339 322 330 346 315 36 14 5 358 7 20 10 357 351 339 353 16 23 22 15 12 16 14 7 15 6 346 336 3 17 272 284 272 225 152 160 164 173 196 188 102 292 265 241 107 135 167 179 168 199 234 237 232 224 227 230 222 216 215 214 211 208 209 211 208 207 207 209
24 323 5 31 337 323 331 69 75 66 27 2 333 4 18 31 18 277 308 16 1 356 6 59 44 13 354 359 16 6 352 4 357 1 19 15 16 17 16 12 9 7 1 355 357 356 348 340 333 328 337 290 138 176 170 178 183 178 187 214 244 216 171 178 181 181 183 198 213 222 220 217 215 218 223 215 210 215 220 213 208 205 207 205 206 205
356 7 16 33 8 336 11 22 44 14 305 0 17 38 24 40 360 347 339 22 16 340 339 9 40 46 18 359 1 34 42 14 9 5 12 20 18 29 23 14 11 12 4 359 346 339 353 354 350 338 2 14 1 223 173 186 216 196 195 207 231 255 167 165 188 201 210 201 208 218 239 260 238 208 199 229 216 209 212 218 218 213 211 209 204 208
353 48 350 57 44 59 93 187 30 332 330 18 30 40 35 16 2 3 24 23 27 10 356 20 24 47 36 10 7 9 40 75 92 28 16 15 25 26 24 28 26 15 13 4 342 337 360 17 354 11 11 4 351 357 358 330 266 228 197 141 181 221 296 259 203 214 220 220 217 211 192 29 296 267 247 258 307 299 260 118 66 44 324 310 283 230
79 112 126 109 85 109 94 60 180 157 17 27 56 48 36 22 22 8 14 21 24 29 30 22 16 19 37 36 16 8 20 31 49 59 55 42 35 35 35 36 31 26 29 19 6 10 15 25 1 11 21 18 336 329 336 353 357 346 325 54 112 146 179 230 235 223 224 220 221 64 75 116 118 3 31 50 64 64 33 358 3 10 337 11 348 319
32 18 50 48 144 176 73 45 65 57 13 1 25 54 40 45 36 27 18 15 15 27 39 37 30 33 22 26 23 27 21 14 25 39 48 44 45 44 45 42 39 36 31 27 16 17 26 37 46 27 330 352 340 334 354 359 349 350 344 335 332 267 272 281 224 269 292 22 45 50 42 24 350 349 353 17 21 40 54 139 194 211 224 177 179 255
9 324 89 44 49 43 63 60 80 95 102 32 15 25 16 28 29 35 27 21 20 29 41 43 40 40 30 35 29 33 30 22 23 28 37 38 35 36 34 33 32 35 37 38 33 29 29 24 22 21 22 26 13 3 357 339 343 357 0 349 343 334 331 299 256 122 94 105 138 140 144 155 203 225 282 63 79 98 198 5 54 66 16 311 318 250
238 250 57 102 109 104 239 85 74 96 92 34 28 35 31 22 31 40 38 37 29 26 18 27 42 44 39 38 37 34 36 30 24 25 32 33 34 29 25 24 26 28 29 34 35 38 39 28 21 18 18 17 16 19 19 13 5 3 3 325 315 303 285 326 351 94 129 117 77 66 63 54 45 50 226 63 68 60 46 15 26 93 120 357 88 78
31 24 358 123 125 79 41 318 331 356 13 357 39 30 27 27 34 44 35 33 35 28 27 25 23 25 43 39 28 34 38 36 32 26 26 28 25 20 17 16 19 25 29 31 35 36 38 35 29 18 15 15 13 15 15 13 8 4 3 2 4 12 23 16 335 25 39 39 64 81 80 72 352 322 19 81 107 102 83 49 67 68 130 143 41 52
49 23 6 31 27 125 239 46 59 77 152 33 18 32 36 40 34 36 36 27 32 33 34 33 27 31 31 34 26 22 29 32 35 33 34 31 23 21 22 19 19 22 21 19 32 38 41 40 38 33 21 13 7 12 12 12 8 5 7 7 8 16 28 30 34 331 25 44 39 54 108 122 127 106 78 68 72 80 116 126 50 57 68 73 75 68